This demonstration page uses our WeatherBlox Daily Observations layout. Learn more.

Left ArrowRight Arrow

39.51506, -84.39828

Hourly Observations for March 10, 2018

Temp ( °F °C ) Dew Point ( °F °C ) Humidity (%) Winds ( mph kmh ) Pressure ( in mb ) Visibility ( mi km ) Precip ( " mm )
12:15 am 00:15 Clear 31 -0.4 22 -5.8 67 67 ENE 8 13 30.06 1018 10 16.0934 N/A
12:35 am 00:35 Cloudy 32 -0.2 21 -6 65 65 ENE 6 9 30.03 1017 10 16.0934 N/A
12:55 am 00:55 Cloudy 30 -0.9 21 -6.3 67 67 ENE 6 9 30.03 1017 10 16.0934 N/A
1:15 am 01:15 Cloudy 30 -1.2 20 -6.6 67 67 E 5 7 30.06 1018 10 16.0934 N/A
1:35 am 01:35 Cloudy 30 -1.2 21 -6.3 69 69 ENE 6 9 30.06 1018 10 16.0934 N/A
1:55 am 01:55 Cloudy 30 -1.2 20 -6.6 67 67 E 6 9 30.06 1018 10 16.0934 N/A
2:15 am 02:15 Cloudy 29 -1.5 20 -6.6 69 69 ENE 6 9 30.06 1018 10 16.0934 N/A
2:35 am 02:35 Cloudy 31 -0.7 21 -6.2 67 67 E 3 6 30.06 1018 10 16.0934 N/A
2:55 am 02:55 Cloudy 30 -1 21 -6.3 68 68 E 5 7 30.06 1018 10 16.0934 N/A
3:15 am 03:15 Cloudy 30 -1.3 20 -6.4 69 69 ENE 5 7 30.06 1018 10 16.0934 N/A
3:35 am 03:35 Cloudy 30 -1.1 20 -6.8 66 66 N N/A 30.06 1018 10 16.0934 N/A
3:55 am 03:55 Mostly Cloudy 29 -1.7 20 -6.8 69 69 E 5 7 30.06 1018 10 16.0934 N/A
4:15 am 04:15 Partly Cloudy 29 -1.7 19 -7.1 67 67 ENE 5 7 30.06 1018 10 16.0934 N/A
4:35 am 04:35 Clear 28 -2 20 -6.6 71 71 NE 3 6 30.06 1018 10 16.0934 N/A
4:55 am 04:55 Clear 28 -2.4 20 -6.5 74 74 NNE 3 6 30.06 1018 10 16.0934 N/A
5:15 am 05:15 Clear 27 -2.8 21 -6.1 78 78 NE 3 6 30.06 1018 10 16.0934 N/A
5:35 am 05:35 Cloudy 27 -2.9 21 -6 79 79 NE 5 7 30.06 1018 10 16.0934 N/A
5:55 am 05:55 Cloudy 28 -2.3 21 -6 76 76 NE 5 7 30.06 1018 10 16.0934 N/A
6:15 am 06:15 Cloudy 28 -2 20 -6.6 71 71 NE 5 7 30.06 1018 10 16.0934 N/A
6:35 am 06:35 Partly Cloudy 28 -2.4 19 -7.4 69 69 N N/A 30.06 1018 10 16.0934 N/A
6:55 am 06:55 Clear 26 -3.2 18 -7.8 71 71 N N/A 30.06 1018 10 16.0934 N/A
7:15 am 07:15 Sunny 26 -3.5 20 -6.7 79 79 N 3 6 30.09 1019 10 16.0934 N/A
7:35 am 07:35 Sunny 26 -3.4 20 -6.6 79 79 N 5 7 30.09 1019 7 11.26538 N/A
7:55 am 07:55 Sunny 28 -2.2 21 -6.3 74 74 N N/A 30.09 1019 10 16.0934 N/A
8:15 am 08:15 Sunny 31 -0.8 20 -6.5 66 66 ENE 5 7 30.09 1019 10 16.0934 N/A
8:35 am 08:35 Sunny 31 -0.3 19 -7 61 61 ENE 5 7 30.09 1019 7 11.26538 N/A
8:55 am 08:55 Sunny 33 0.5 20 -6.8 58 58 ENE 6 9 30.09 1019 10 16.0934 N/A
9:15 am 09:15 Sunny 35 1.5 20 -6.8 54 54 ENE 7 11 30.09 1019 10 16.0934 N/A
9:35 am 09:35 Sunny 37 2.5 19 -7 50 50 ENE 7 11 30.09 1019 10 16.0934 N/A
9:55 am 09:55 Sunny 38 3.1 19 -7.4 46 46 E 8 13 30.09 1019 10 16.0934 N/A
10:15 am 10:15 Sunny 38 3.6 18 -7.6 44 44 E 9 15 30.09 1019 10 16.0934 N/A
10:35 am 10:35 Sunny 39 3.7 18 -8 42 42 ENE 3 6 30.09 1019 10 16.0934 N/A
10:55 am 10:55 Sunny 40 4.4 19 -7 44 44 ENE 9 15 30.06 1018 10 16.0934 N/A
11:15 am 11:15 Sunny 40 4.5 19 -7.5 42 42 N N/A 30.06 1018 10 16.0934 N/A
11:35 am 11:35 Sunny 41 4.8 19 -7.5 41 41 N 6 9 30.06 1018 10 16.0934 N/A
11:55 am 11:55 Sunny 41 5.2 19 -7.2 41 41 NE 5 7 30.06 1018 10 16.0934 N/A
12:15 pm 12:15 Sunny 42 5.8 20 -6.9 40 40 ENE 6 9 30.06 1018 10 16.0934 N/A
12:35 pm 12:35 Sunny 44 6.6 21 -6.3 40 40 SE 7 11 30.03 1017 10 16.0934 N/A
12:55 pm 12:55 Sunny 44 6.4 19 -7 38 38 N 7 11 30.03 1017 10 16.0934 N/A
1:15 pm 13:15 Sunny 44 6.7 19 -7.3 36 36 N 6 9 30.03 1017 10 16.0934 N/A
1:35 pm 13:35 Sunny 45 7.3 20 -6.4 37 37 NE 8 13 30.03 1017 10 16.0934 N/A
1:55 pm 13:55 Sunny 46 7.5 20 -6.4 37 37 ENE 8 13 30.03 1017 10 16.0934 N/A
2:15 pm 14:15 Sunny 46 7.5 20 -6.7 36 36 ENE 9 15 30 1016 10 16.0934 N/A
2:35 pm 14:35 Sunny 46 7.9 20 -6.6 35 35 E 10 17 30 1016 10 16.0934 N/A
2:55 pm 14:55 Sunny 47 8.1 20 -6.6 35 35 ESE 7 11 30 1016 10 16.0934 N/A
3:15 pm 15:15 Sunny 46 7.8 19 -7 35 35 ENE 3 6 30 1016 10 16.0934 N/A
3:35 pm 15:35 Sunny 46 7.7 20 -6.9 35 35 NE 7 11 30 1016 10 16.0934 N/A
3:55 pm 15:55 Sunny 47 8.1 18 -7.6 32 32 N 5 7 30.03 1017 10 16.0934 N/A
4:15 pm 16:15 Sunny 46 8 19 -7.3 33 33 NE 10 17 30 1016 10 16.0934 N/A
4:35 pm 16:35 Sunny 46 7.7 19 -7.1 35 35 NE 7 11 30.03 1017 10 16.0934 N/A
4:55 pm 16:55 Sunny 46 7.5 19 -7.4 34 34 NE 5 7 30.03 1017 10 16.0934 N/A
5:15 pm 17:15 Sunny 45 7.3 19 -7.3 35 35 N 9 15 30.03 1017 10 16.0934 N/A
5:35 pm 17:35 Sunny 45 7 18 -7.6 35 35 N 5 7 30.03 1017 10 16.0934 N/A
5:55 pm 17:55 Sunny 44 6.5 20 -6.9 38 38 NE 7 11 30.03 1017 10 16.0934 N/A
6:15 pm 18:15 Sunny 42 5.5 20 -6.5 42 42 NE 9 15 30.03 1017 10 16.0934 N/A
6:35 pm 18:35 Sunny 40 4.7 20 -6.8 43 43 NNE 6 9 30.06 1018 10 16.0934 N/A
6:55 pm 18:55 Clear 40 4.2 20 -6.8 45 45 N 6 9 30.06 1018 10 16.0934 N/A
7:15 pm 19:15 Clear 38 3.6 20 -6.8 47 47 N 6 9 30.09 1019 10 16.0934 N/A
7:35 pm 19:35 Clear 38 3.3 20 -6.7 48 48 N 7 11 30.09 1019 10 16.0934 N/A
7:55 pm 19:55 Clear 37 2.8 20 -6.7 50 50 NNE 6 9 30.09 1019 10 16.0934 N/A
8:15 pm 20:15 Clear 37 2.5 20 -6.5 52 52 NNE 7 11 30.09 1019 10 16.0934 N/A
8:35 pm 20:35 Clear 36 2.2 20 -6.4 53 53 NNE 7 11 30.09 1019 10 16.0934 N/A
8:55 pm 20:55 Clear 35 1.8 21 -6.3 55 55 NNE 7 11 30.12 1020 10 16.0934 N/A
9:15 pm 21:15 Clear 35 1.5 20 -6.4 56 56 NE 7 11 30.12 1020 10 16.0934 N/A
9:35 pm 21:35 Clear 34 1.1 20 -6.5 57 57 NNE 6 9 30.12 1020 10 16.0934 N/A
9:50 pm 21:50 Clear 34 1 20 -6.5 58 58 NNE 7 11 30.12 1020 10 16.0934 N/A
10:15 pm 22:15 Clear 33 0.6 20 -6.4 60 60 NNE 7 11 30.12 1020 10 16.0934 N/A
10:35 pm 22:35 Clear 33 0.5 20 -6.4 60 60 NNE 7 11 30.12 1020 10 16.0934 N/A
10:50 pm 22:50 Clear 33 0.3 21 -6.3 62 62 NNE 8 13 30.15 1021 10 16.0934 N/A
11:15 pm 23:15 Clear 33 0.7 21 -6 61 61 NE 8 13 30.15 1021 10 16.0934 N/A
11:35 pm 23:35 Clear 33 0.5 21 -6 62 62 NE 9 15 30.15 1021 10 16.0934 N/A
11:50 pm 23:50 Clear 32 -0.1 21 -6.2 64 64 NE 7 11 30.15 1021 10 16.0934 N/A

Powered by AerisWeather